This is the latest recevied weather packets stored in our database for station/object KC1HBM. If no packets are shown the sender has not sent any weather packets the latest 1 day(s).
| Time | Temp. | Humidity | Pressure | Rain* | Wind** | Luminosity | Snow |
|---|---|---|---|---|---|---|---|
| 1778033830 | 13.33° C | 81% | 1006.1 hPa | 0 mm | 0 m/s | 0 W/m² | - |
| 1778033526 | 13.33° C | 81% | 1006.4 hPa | 0 mm | 0 m/s | 0 W/m² | - |
| 1778033223 | 13.33° C | 81% | 1006.3 hPa | 0 mm | 0.45 m/s, 326° | 0 W/m² | - |
| 1778032921 | 13.89° C | 81% | 1006.1 hPa | 0 mm | 0.45 m/s, 304° | 0 W/m² | - |
| 1778032618 | 13.89° C | 81% | 1006.2 hPa | 0 mm | 0.45 m/s, 309° | 0 W/m² | - |
| 1778032316 | 13.89° C | 80% | 1006.1 hPa | 0 mm | 0.45 m/s, 310° | 0 W/m² | - |
| 1778032013 | 13.89° C | 80% | 1006.2 hPa | 0 mm | 0 m/s | 0 W/m² | - |
| 1778031708 | 14.44° C | 79% | 1006.4 hPa | 0 mm | 0.45 m/s, 308° | 0 W/m² | - |
| 1778031406 | 14.44° C | 79% | 1006.1 hPa | 0 mm | 0.45 m/s, 311° | 0 W/m² | - |
| 1778031103 | 14.44° C | 78% | 1006 hPa | 0 mm | 0.45 m/s, 310° | 0 W/m² | - |
| 1778030799 | 14.44° C | 78% | 1006.4 hPa | 0 mm | 0 m/s | 0 W/m² | - |
| 1778030496 | 14.44° C | 78% | 1006.2 hPa | 0 mm | 0 m/s | 0 W/m² | - |
| 1778030194 | 15° C | 78% | 1006.2 hPa | 0 mm | 0.89 m/s, 307° | 0 W/m² | - |
| 1778029890 | 15° C | 77% | 1005.8 hPa | 0 mm | 0 m/s | 0 W/m² | - |
| 1778029589 | 15° C | 77% | 1005.9 hPa | 0 mm | 0 m/s | 0 W/m² | - |
| 1778029285 | 15° C | 77% | 1005.8 hPa | 0 mm | 0.89 m/s, 298° | 0 W/m² | - |
| 1778028982 | 15.56° C | 76% | 1005.7 hPa | 0 mm | 0.45 m/s, 308° | 0 W/m² | - |
| 1778028678 | 16.11° C | 75% | 1005.9 hPa | 0 mm | 0.45 m/s, 300° | 0 W/m² | - |
| 1778028375 | 16.11° C | 73% | 1005.8 hPa | 0 mm | 0 m/s | 0 W/m² | - |
| 1778028072 | 16.11° C | 73% | 1005.6 hPa | 0 mm | 0.45 m/s, 319° | 0 W/m² | - |
| 1778027769 | 16.11° C | 73% | 1005.6 hPa | 0 mm | 0 m/s | 0 W/m² | - |
| 1778027465 | 16.11° C | 73% | 1005.6 hPa | 0 mm | 0.45 m/s, 309° | 0 W/m² | - |
| 1778027161 | 16.67° C | 73% | 1005.5 hPa | 0 mm | 0.45 m/s, 308° | 0 W/m² | - |
| 1778026857 | 16.67° C | 71% | 1005.5 hPa | 0 mm | 0.45 m/s, 312° | 0 W/m² | - |
| 1778026553 | 16.67° C | 71% | 1005.4 hPa | 0 mm | 0.45 m/s, 319° | 0 W/m² | - |
* Rain latest hour (hover to see other rain measurements)
** Current wind speed in m/s (hover to see current wind gust speed)